Dynamics Explorer 1

operational
NORAD ID: 12624 Int'l Des: 1981-070 Owner: GSFC Country: US
MEOELLIPTICALRETROGRADEHEO_ELLIPTICAL

Dynamics Explorer 1について

説明を読み込み中...

リアルタイム位置

3D地球を読み込み中...

次回通過

高度履歴

Altitude vs Time

uPlot chart will show altitude changes over time

軌道要素

1 12624U 81070A 26060.15674686 .00000076 00000-0 -96709-4 0 9997
2 12624 90.9240 46.5689 6227967 237.6799 47.1485 3.52908069721349
Epoch: Mar 1, 2026 • Age: 95 hours

現在のステータス

高度 22934.1 km
速度 2.31 km/s
衛星直下点 62.38°N, 103.72°W
打ち上げ日 Aug 3, 1981
運用期間 44.5 years
タイプ other

技術仕様

分類 Payload
質量 424.00 kg
乾燥質量 424.00 kg
総質量 424.00 kg
長さ 1.10 m
直径 1.40 m
スパン 200.00 m
形状 Cyl + Ant
製造者 RCA
バスタイプ DE
フェーズステータス In Orbit
所有者/国 GSFC/US

大規模コンステレーション

Loading constellations...